Погода в Арнсберге

Германия     51°23′44″N   8°03′56″E
темп.,
°C
ветер,
м/с
пор.,
м/с
влажн.,
%
обл.,
%
осадки,
мм/ч
давл.,
гПа
погр.,
м
24 мая, вт
вт2423:00+16зюз71297100 8.9 999826
02:00+13зюз4109699 9.3 1002655
05:00+12юз5109573 0.1 1002642
08:00+10юз51195100 0.9 1004615
11:00+14юз697028 2.3 10051274
14:00+17зюз71053100 2.7 10061989
17:00+16зюз5855100 0.1 10081447
20:00+14юз366996 0.2 1009501
25 мая, ср
ср2523:00+10ююз3686100 0.1 1012115
02:00+10ююз3984100 0.1 1013256
05:00+8ююз49890 0.0 1013251
08:00+11юз59710 0.0 1015574
11:00+16зюз58525 0.0 10161538
14:00+19зюз694059 0.0 10152563
17:00+19з5844100 0.0 10152413
20:00+15зюз5105627 0.0 10161001
26 мая, чт
чт2623:00+14юз51062100 0.0 1018909
02:00+14юз61267100 0.0 10171085
05:00+13зюз5107799 0.1 10181054
08:00+13зюз5983100 0.1 1020818
11:00+15з587195 0.2 10211135
14:00+17з5860100 0.4 10211563
17:00+19з695299 0.0 10201783
20:00+18зюз4106296 0.0 10191181
27 мая, пт
пт2723:00+16зюз51068100 0.0 1019895
02:00+14зюз6128067 0.1 1017908
05:00+12зсз61198100 1.4 10171021
08:00+11з4993100 3.4 1019966
11:00+14зсз711526 0.1 10201799
14:00+16зсз7113973 0.1 10192412
17:00+16зсз71147100 0.0 10192669
20:00+12зсз711635 0.1 10201484
28 мая, сб
сб2823:00+9зсз511675 0.0 10211048
02:00+8з5127761 0.1 1020781
05:00+7з411915 0.3 1020639
08:00+10зсз6107468 0.4 10201167
11:00+12зсз6105922 0.1 10201493
14:00+13зсз6970100 0.5 10201407
17:00+12зсз5884100 0.9 1019916
20:00+10зсз498853 2.1 1018505